Location: ???????????
(54.5822°N, 39.1075°E)
Time: 05:12:09
(UTC+00:00)

Cosmos 1470 - Pass Details

Date: 19 May 2025
Orbit: 455 x 466 km, 82.5° (Epoch: 19 June)

Event Time Altitude Azimuth Distance (km) Brightness Sun altitude
Rises 21:27:51 0° 340° (NNW) 2,521 7.5 -15.4°
Reaches altitude 10° 21:30:08 10° 328° (NNW) 1,641 6.1 -15.4°
Maximum altitude 21:33:13 27° 269° (W) 932 3.9 -15.4°
Enters shadow 21:34:36 21° 232° (SW) 1,111 4.0 -15.4°
